This demonstration page uses our WeatherBlox Daily Observations layout. Learn more.

Left ArrowRight Arrow

Hourly Observations for January 4, 2020

Temp ( °F °C ) Dew Point ( °F °C ) Humidity (%) Winds ( mph kmh ) Pressure ( in mb ) Visibility ( mi km ) Precip ( " mm )
12:15 am 00:15 Cloudy 41 5 41 5 100 100 NW 6 9 29.86 1011 3 4.82802 N/A
12:36 am 00:36 Cloudy 39 4 39 4 100 100 NNW 6 9 29.85 1011 3 4.82802 N/A
12:55 am 00:55 Cloudy 39 4 39 4 100 100 NW 8 13 29.85 1011 4 6.43736 N/A
1:15 am 01:15 Cloudy 39 4 39 4 100 100 NW 7 11 29.85 1011 4 6.43736 N/A
1:35 am 01:35 Cloudy 39 4 39 4 100 100 NW 7 11 29.85 1011 4 6.43736 N/A
1:56 am 01:56 Cloudy 39 4 39 4 100 100 NW 6 9 29.85 1011 5 8.0467 N/A
2:15 am 02:15 Cloudy 39 4 39 4 100 100 NW 7 11 29.86 1011 5 8.0467 N/A
2:35 am 02:35 Cloudy 39 4 39 4 100 100 NNW 8 13 29.86 1011 3 4.82802 N/A
2:55 am 02:55 Cloudy 37 3 37 3 100 100 NW 7 11 29.87 1012 4 6.43736 N/A
3:16 am 03:16 Cloudy 37 3 37 3 100 100 NW 8 13 29.88 1012 5 8.0467 N/A
3:35 am 03:35 Cloudy 37 3 37 3 100 100 NW 8 13 29.88 1012 7 11.26538 N/A
3:56 am 03:56 Cloudy 37 3 37 3 100 100 WNW 10 17 29.88 1012 7 11.26538 N/A
4:16 am 04:16 Cloudy 37 3 37 3 100 100 NW 7 11 29.88 1012 4 6.43736 N/A
4:35 am 04:35 Cloudy 37 3 37 3 100 100 NW 10 17 29.88 1012 5 8.0467 N/A
4:55 am 04:55 Cloudy 36 2 36 2 100 100 NW 6 9 29.89 1012 2.5 4.02335 N/A
5:16 am 05:16 Cloudy 36 2 36 2 100 100 NW 7 11 29.89 1012 4 6.43736 N/A
5:36 am 05:36 Cloudy 36 2 36 2 100 100 NW 6 9 29.89 1012 5 8.0467 N/A
5:56 am 05:56 Cloudy 36 2 36 2 100 100 NW 5 7 29.9 1012 5 8.0467 N/A
6:15 am 06:15 Cloudy 36 2 36 2 100 100 NNW 7 11 29.9 1012 5 8.0467 N/A
6:35 am 06:35 Cloudy 36 2 36 2 100 100 NW 10 17 29.91 1013 5 8.0467 N/A
6:56 am 06:56 Cloudy 36 2 36 2 100 100 NW 6 9 29.9 1012 5 8.0467 N/A
7:15 am 07:15 Cloudy 36 2 36 2 100 100 NNW 5 7 29.9 1012 5 8.0467 N/A
7:35 am 07:35 Cloudy 36 2 36 2 100 100 WNW 9 15 29.9 1012 5 8.0467 N/A
7:56 am 07:56 Cloudy 36 2 36 2 100 100 W 7 11 29.9 1012 5 8.0467 N/A
8:16 am 08:16 Cloudy 36 2 36 2 100 100 WNW 12 19 29.91 1013 5 8.0467 N/A
8:35 am 08:35 Cloudy 36 2 36 2 100 100 WNW 9 15 29.92 1013 5 8.0467 N/A
8:55 am 08:55 Cloudy 34 1 34 1 100 100 WNW 10 17 29.92 1013 5 8.0467 N/A
9:16 am 09:16 Cloudy 34 1 34 1 100 100 WNW 12 19 29.93 1014 2 3.21868 N/A
9:36 am 09:36 Cloudy 34 1 34 1 100 100 WNW 10 17 29.94 1014 2 3.21868 N/A
9:56 am 09:56 Cloudy 34 1 34 1 100 100 WNW 12 19 29.95 1014 1.75 2.816345 N/A
10:15 am 10:15 Cloudy 34 1 34 1 100 100 WNW 10 17 29.96 1015 2.5 4.02335 N/A
10:36 am 10:36 Cloudy 34 1 34 1 100 100 WNW 14 22 29.96 1015 2.5 4.02335 N/A
10:56 am 10:56 Cloudy 34 1 34 1 100 100 WNW 12 19 29.97 1015 2 3.21868 N/A
11:16 am 11:16 Cloudy 34 1 34 1 100 100 WNW 13 20 29.97 1015 1.5 2.41401 N/A
11:36 am 11:36 Cloudy 34 1 34 1 100 100 WNW 13 20 29.97 1015 2 3.21868 N/A
11:56 am 11:56 Cloudy 34 1 34 1 100 100 WNW 15 24 29.97 1015 10 16.0934 N/A
12:15 pm 12:15 Cloudy 34 1 34 1 100 100 WNW 12 19 29.97 1015 5 8.0467 N/A
12:35 pm 12:35 Cloudy 34 1 34 1 100 100 WNW 13 20 29.97 1015 3 4.82802 N/A
12:56 pm 12:56 Cloudy 34 1 34 1 100 100 WNW 14 22 29.97 1015 3 4.82802 N/A
1:16 pm 13:16 Cloudy 34 1 34 1 100 100 WNW 18 30 29.97 1015 5 8.0467 N/A
1:35 pm 13:35 Cloudy 34 1 34 1 100 100 WNW 15 24 29.97 1015 7 11.26538 N/A
1:56 pm 13:56 Cloudy 34 1 34 1 100 100 WNW 12 19 29.96 1015 7 11.26538 N/A
2:15 pm 14:15 Cloudy 36 2 36 2 100 100 WNW 12 19 29.96 1014 10 16.0934 N/A
2:36 pm 14:36 Cloudy 36 2 34 1 93 93 WNW 15 24 29.97 1015 10 16.0934 N/A
2:56 pm 14:56 Cloudy 36 2 32 0 87 87 WNW 16 26 29.98 1015 10 16.0934 N/A
3:15 pm 15:15 Cloudy 34 1 32 0 93 93 WNW 17 28 29.99 1016 10 16.0934 N/A
3:36 pm 15:36 Cloudy 34 1 32 0 93 93 NW 13 20 30 1016 10 16.0934 N/A
3:55 pm 15:55 Cloudy 34 1 32 0 93 93 WNW 16 26 30.01 1016 10 16.0934 N/A
4:16 pm 16:16 Cloudy 34 1 32 0 93 93 NW 13 20 30.02 1017 10 16.0934 N/A
4:36 pm 16:36 Cloudy 32 0 32 0 100 100 WNW 17 28 30.05 1017 10 16.0934 N/A
4:55 pm 16:55 Cloudy 32 0 32 0 100 100 WNW 20 31 30.07 1018 2 3.21868 N/A
5:16 pm 17:16 Cloudy 32 0 32 0 100 100 NW 13 20 30.08 1018 1.75 2.816345 N/A
5:35 pm 17:35 Cloudy 32 0 32 0 100 100 WNW 15 24 30.08 1018 1.75 2.816345 N/A
5:56 pm 17:56 Cloudy 32 0 32 0 100 100 NW 12 19 30.09 1019 7 11.26538 N/A
6:16 pm 18:16 Cloudy 32 0 32 0 100 100 WNW 14 22 30.11 1019 10 16.0934 N/A
6:36 pm 18:36 Cloudy 32 0 32 0 100 100 WNW 14 22 30.12 1020 10 16.0934 N/A
6:55 pm 18:55 Cloudy 32 0 32 0 100 100 WNW 14 22 30.13 1020 10 16.0934 N/A
7:15 pm 19:15 Cloudy 32 0 32 0 100 100 WNW 12 19 30.14 1020 10 16.0934 N/A
7:35 pm 19:35 Cloudy 32 0 30 -1 93 93 WNW 18 30 30.15 1021 10 16.0934 N/A
7:56 pm 19:56 Cloudy 32 0 30 -1 93 93 NW 14 22 30.15 1021 10 16.0934 N/A
8:15 pm 20:15 Cloudy 32 0 30 -1 93 93 WNW 20 31 30.16 1021 10 16.0934 N/A
8:35 pm 20:35 Cloudy 32 0 28 -2 87 87 WNW 15 24 30.17 1022 10 16.0934 N/A
8:55 pm 20:55 Cloudy 32 0 28 -2 87 87 WNW 12 19 30.16 1021 10 16.0934 N/A
9:15 pm 21:15 Cloudy 32 0 30 -1 93 93 WNW 13 20 30.17 1022 10 16.0934 N/A
9:36 pm 21:36 Cloudy 32 0 30 -1 93 93 WNW 12 19 30.18 1022 10 16.0934 N/A
9:55 pm 21:55 Cloudy 32 0 30 -1 93 93 WNW 10 17 30.19 1022 10 16.0934 N/A
10:15 pm 22:15 Cloudy 30 -1 30 -1 100 100 WNW 10 17 30.19 1022 10 16.0934 N/A
10:36 pm 22:36 Cloudy 30 -1 30 -1 100 100 WNW 9 15 30.2 1023 7 11.26538 N/A
10:55 pm 22:55 Cloudy 32 0 32 0 100 100 WNW 10 17 30.2 1023 7 11.26538 N/A
11:15 pm 23:15 Cloudy 32 0 32 0 100 100 WNW 14 22 30.2 1023 5 8.0467 N/A
11:36 pm 23:36 Cloudy 30 -1 30 -1 100 100 WNW 13 20 30.21 1023 10 16.0934 N/A
11:55 pm 23:55 Cloudy 30 -1 30 -1 100 100 WNW 12 19 30.19 1022 10 16.0934 N/A

Powered by AerisWeather